Terminal Aerodrome Forecast
Issued by NWS Charleston, WV

Current Version | Previous Version | Graphics & Text | Print | Product List | Glossary On
Versions: 1 2 3 4 5 6 7 8 9 10 11 12 13 14 15 16 17 18 19 20 21 22 23 24
000
FTUS41 KRLX 191120
TAFBKW
TAF
KBKW 191120Z 1912/2012 30014G27KT P6SM OVC015
     FM191800 29014G25KT P6SM OVC020
     FM192300 29013G20KT P6SM OVC025
     FM200500 29010KT P6SM SCT030=

USA.gov is the U.S. government's official web portal to all federal, state and local government web resources and services.